Location: Antist
(43.1184°N, 0.1270°E)
Time: 18:43:36
(UTC+00:00)

STARLINK-1095 - Pass Details

Date: 19 January 2020
Orbit: 348 x 351 km, 53.0° (Epoch: 16 February)

Event Time Altitude Azimuth Distance (km) Brightness Sun altitude
Rises 18:06:49 0° 257° (WSW) 2,154 8.7 -13.2°
Reaches altitude 10° 18:08:58 10° 269° (W) 1,315 6.9 -13.5°
Maximum altitude 18:11:37 30° 334° (NNW) 659 4.1 -14.0°
Enters shadow 18:13:02 20° 22° (NNE) 900 4.4 -14.2°
